Total_Precipitation_Accumulation
0.09 0.15 0.18 0.22 0.18 0.12 0.09 0.09 0.16 0.17 0.23 0.22 0.18 0.21 0.26 0.21 0.16 0.15 0.19 0.17 0.13 0.11 0.13 0.17 0.21 0.26 0.30 0.32 0.34 0.42 0.56 0.71 0.84 0.95 0.80 0.58 0.46 0.40 0.38 0.42 0.49 0.60 0.72 0.81
0.08 0.12 0.14 0.19 0.19 0.12 0.09 0.07 0.06 0.10 0.18 0.18 0.22 0.24 0.26 0.23 0.21 0.19 0.25 0.25 0.21 0.22 0.21 0.21 0.23 0.25 0.26 0.29 0.33 0.39 0.50 0.59 0.67 0.71 0.61 0.46 0.33 0.30 0.33 0.39 0.46 0.54 0.61 0.68
0.13 0.13 0.13 0.17 0.18 0.14 0.10 0.10 0.12 0.16 0.19 0.20 0.25 0.24 0.24 0.23 0.18 0.16 0.15 0.18 0.22 0.19 0.18 0.18 0.21 0.23 0.24 0.25 0.35 0.51 0.58 0.55 0.61 0.66 0.59 0.47 0.33 0.29 0.32 0.39 0.47 0.50 0.49 0.52
0.22 0.22 0.27 0.19 0.17 0.16 0.15 0.17 0.20 0.22 0.21 0.23 0.28 0.23 0.17 0.17 0.15 0.15 0.15 0.17 0.20 0.23 0.21 0.18 0.19 0.21 0.22 0.24 0.33 0.47 0.56 0.57 0.66 0.73 0.68 0.57 0.48 0.43 0.45 0.48 0.49 0.49 0.48 0.47
0.37 0.34 0.27 0.25 0.24 0.26 0.28 0.34 0.30 0.28 0.25 0.26 0.28 0.27 0.22 0.16 0.13 0.13 0.15 0.17 0.17 0.20 0.22 0.21 0.23 0.26 0.28 0.32 0.40 0.51 0.59 0.66 0.70 0.79 0.82 0.76 0.75 0.75 0.75 0.72 0.65 0.60 0.55 0.53
0.40 0.44 0.45 0.43 0.38 0.32 0.36 0.59 0.53 0.40 0.32 0.28 0.31 0.48 0.47 0.28 0.19 0.15 0.16 0.19 0.23 0.25 0.22 0.21 0.25 0.31 0.38 0.44 0.50 0.59 0.68 0.76 0.81 0.91 0.97 0.90 0.89 0.91 0.90 0.92 0.84 0.76 0.68 0.68
0.44 0.50 0.56 0.58 0.42 0.35 0.64 0.82 0.58 0.47 0.40 0.37 0.40 0.45 0.43 0.35 0.28 0.20 0.19 0.21 0.26 0.32 0.25 0.24 0.30 0.39 0.48 0.51 0.56 0.58 0.63 0.70 0.82 1.01 1.11 1.12 1.15 1.17 1.13 1.10 1.04 0.96 0.85 0.82
0.57 0.74 0.76 0.54 0.46 0.58 0.70 0.66 0.65 0.58 0.54 0.53 0.47 0.36 0.30 0.25 0.23 0.19 0.16 0.16 0.19 0.23 0.25 0.28 0.36 0.47 0.57 0.60 0.58 0.60 0.63 0.71 0.89 1.05 1.07 1.10 1.28 1.32 1.28 1.26 1.18 1.10 1.02 0.93
0.71 0.78 0.63 0.53 0.57 0.61 0.67 0.71 0.69 0.65 0.66 0.56 0.48 0.35 0.27 0.21 0.17 0.16 0.15 0.16 0.17 0.22 0.30 0.40 0.50 0.61 0.74 0.75 0.71 0.69 0.74 0.81 0.92 0.99 1.09 1.21 1.32 1.36 1.36 1.33 1.23 1.12 1.08 1.03
0.70 0.67 0.55 0.52 0.54 0.50 0.54 0.55 0.56 0.48 0.47 0.41 0.43 0.33 0.25 0.18 0.16 0.16 0.17 0.17 0.19 0.23 0.30 0.42 0.57 0.70 0.78 0.80 0.79 0.80 0.81 0.84 0.92 1.01 1.05 1.17 1.32 1.29 1.23 1.21 1.23 1.20 1.15 1.10
0.62 0.64 0.62 0.60 0.61 0.52 0.46 0.39 0.33 0.28 0.29 0.30 0.34 0.32 0.24 0.19 0.19 0.17 0.16 0.16 0.20 0.33 0.45 0.53 0.64 0.75 0.78 0.77 0.82 0.88 0.85 0.82 0.84 0.90 0.99 1.13 1.22 1.29 1.22 1.16 1.03 1.01 1.01 1.03
0.60 0.56 0.55 0.62 0.60 0.50 0.38 0.30 0.27 0.26 0.23 0.23 0.26 0.27 0.21 0.18 0.18 0.17 0.16 0.18 0.23 0.34 0.46 0.55 0.67 0.81 0.85 0.86 0.91 0.98 0.98 0.94 0.92 0.93 0.97 1.02 1.10 1.10 0.98 0.86 0.73 0.67 0.66 0.67
0.40 0.40 0.43 0.48 0.40 0.31 0.28 0.27 0.26 0.26 0.27 0.24 0.23 0.20 0.18 0.17 0.16 0.15 0.16 0.20 0.25 0.30 0.36 0.43 0.55 0.69 0.80 0.91 0.99 1.05 1.04 1.03 1.01 0.94 0.96 1.02 1.07 1.11 1.08 0.92 0.75 0.62 0.53 0.47
0.33 0.32 0.36 0.31 0.25 0.23 0.22 0.23 0.22 0.22 0.22 0.21 0.19 0.18 0.18 0.17 0.16 0.16 0.17 0.19 0.22 0.26 0.32 0.41 0.51 0.59 0.69 0.85 0.98 1.02 1.01 0.99 0.97 0.95 0.93 0.96 1.00 1.02 1.08 1.12 1.02 0.85 0.65 0.51
0.43 0.34 0.34 0.27 0.21 0.24 0.23 0.20 0.18 0.16 0.16 0.16 0.15 0.14 0.14 0.17 0.18 0.18 0.19 0.21 0.25 0.29 0.33 0.43 0.53 0.60 0.72 0.86 0.94 0.96 0.96 0.94 0.91 0.92 0.93 0.92 0.96 0.98 1.00 1.07 1.07 1.02 0.88 0.70
0.38 0.29 0.24 0.24 0.23 0.22 0.21 0.21 0.19 0.18 0.16 0.14 0.12 0.11 0.12 0.14 0.16 0.19 0.22 0.27 0.37 0.40 0.45 0.55 0.62 0.65 0.78 0.91 0.99 0.99 0.97 0.89 0.84 0.85 0.90 0.91 0.93 0.96 0.95 1.01 1.03 1.03 0.94 0.77
0.36 0.26 0.20 0.19 0.20 0.20 0.21 0.21 0.19 0.17 0.16 0.14 0.13 0.11 0.11 0.13 0.17 0.22 0.25 0.28 0.35 0.41 0.50 0.64 0.67 0.67 0.80 0.94 1.04 1.03 0.96 0.87 0.75 0.74 0.77 0.82 0.87 0.89 0.89 0.92 0.93 0.95 0.85 0.66
0.26 0.24 0.20 0.20 0.21 0.22 0.22 0.21 0.19 0.18 0.18 0.18 0.17 0.17 0.20 0.26 0.35 0.41 0.42 0.42 0.46 0.44 0.47 0.58 0.64 0.70 0.79 0.89 0.97 1.01 0.98 0.90 0.78 0.67 0.66 0.72 0.78 0.83 0.86 0.86 0.86 0.86 0.78 0.59
0.18 0.19 0.20 0.23 0.26 0.25 0.24 0.24 0.24 0.25 0.25 0.24 0.25 0.27 0.31 0.39 0.51 0.59 0.60 0.63 0.69 0.67 0.59 0.56 0.61 0.65 0.73 0.79 0.84 0.93 0.90 0.84 0.75 0.59 0.58 0.64 0.72 0.82 0.83 0.78 0.80 0.80 0.71 0.59
0.13 0.14 0.15 0.24 0.35 0.38 0.37 0.36 0.38 0.38 0.35 0.34 0.36 0.40 0.46 0.50 0.60 0.70 0.73 0.71 0.71 0.76 0.71 0.62 0.58 0.61 0.66 0.70 0.73 0.78 0.76 0.77 0.73 0.56 0.53 0.66 0.75 0.81 0.78 0.71 0.73 0.72 0.62 0.58
0.10 0.09 0.10 0.13 0.19 0.25 0.29 0.30 0.32 0.36 0.39 0.44 0.53 0.63 0.71 0.69 0.72 0.83 0.93 0.82 0.67 0.69 0.67 0.60 0.53 0.54 0.57 0.68 0.71 0.74 0.71 0.70 0.73 0.62 0.54 0.63 0.73 0.77 0.74 0.68 0.64 0.58 0.53 0.53
0.10 0.08 0.10 0.12 0.13 0.14 0.14 0.16 0.23 0.34 0.42 0.47 0.54 0.66 0.80 0.87 0.91 0.91 0.83 0.81 0.73 0.72 0.64 0.57 0.51 0.48 0.48 0.55 0.67 0.71 0.70 0.69 0.72 0.69 0.62 0.63 0.70 0.73 0.71 0.63 0.56 0.50 0.48 0.49
0.07 0.05 0.05 0.05 0.07 0.10 0.11 0.13 0.18 0.28 0.38 0.46 0.55 0.73 0.90 0.94 1.03 1.17 0.99 0.73 0.67 0.68 0.63 0.54 0.50 0.46 0.43 0.42 0.55 0.64 0.64 0.69 0.71 0.71 0.66 0.61 0.59 0.61 0.61 0.54 0.49 0.49 0.52 0.54
0.06 0.05 0.05 0.05 0.06 0.09 0.13 0.15 0.19 0.26 0.36 0.42 0.51 0.67 0.89 1.05 1.01 0.92 0.87 0.76 0.65 0.59 0.57 0.52 0.43 0.41 0.39 0.36 0.44 0.53 0.58 0.63 0.61 0.58 0.55 0.52 0.54 0.56 0.53 0.51 0.49 0.52 0.57 0.59
0.08 0.08 0.08 0.10 0.14 0.20 0.27 0.32 0.35 0.40 0.48 0.51 0.51 0.57 0.68 0.91 1.07 0.91 0.73 0.67 0.62 0.54 0.52 0.52 0.45 0.40 0.36 0.33 0.35 0.42 0.48 0.52 0.50 0.50 0.47 0.47 0.50 0.49 0.45 0.44 0.46 0.50 0.55 0.58
0.06 0.07 0.08 0.11 0.17 0.28 0.42 0.53 0.62 0.66 0.75 0.80 0.72 0.66 0.67 0.74 0.85 0.85 0.72 0.62 0.57 0.54 0.50 0.49 0.47 0.42 0.38 0.36 0.34 0.37 0.43 0.49 0.51 0.49 0.44 0.48 0.47 0.45 0.46 0.49 0.46 0.46 0.48 0.49
0.09 0.08 0.10 0.14 0.21 0.33 0.49 0.64 0.78 0.87 0.95 1.04 0.99 0.83 0.77 0.75 0.78 0.79 0.72 0.65 0.61 0.60 0.58 0.55 0.52 0.49 0.46 0.42 0.37 0.36 0.42 0.49 0.52 0.51 0.51 0.53 0.56 0.56 0.52 0.50 0.46 0.43 0.43 0.39